Regional Weather Roundup
Issued by NWS

Home | Current Version | Previous Version | Graphics & Text | Print | Product List | Glossary On
Versions: 1 2 3 4 5 6 7 8 9 10 11 12 13 14 15 16 17 18 19 20 21 22 23 24 25 26 27 28 29 30 31 32 33 34 35 36 37 38 39 40 41 42 43 44 45 46 47 48 49 50
000
ASUS43 KFSD 271110
RWRSD

WEATHER ROUNDUP FOR SOUTH DAKOTA
NATIONAL WEATHER SERVICE SIOUX FALLS SD
600 AM CDT SAT AUG 27 2016

NOTE: "FAIR" INDICATES FEW OR NO CLOUDS BELOW 12,000 FEET WITH NO
SIGNIFICANT WEATHER AND/OR OBSTRUCTIONS TO VISIBILITY.


SDZ001>005-009-010-012>017-271200-
NORTHWEST AND NORTH CENTRAL SOUTH DAKOTA

CITY           SKY/WX    TMP DP  RH WIND       PRES   REMARKS
BUFFALO          N/A     47  46  97 CALM      29.91S
FAITH            N/A     49  49 100 CALM      29.95F
MOBRIDGE       CLOUDY    57  53  86 CALM      29.92F
$$

SDZ012>016-024>037-041>051-057-063-072>074-271200-
SOUTHWEST AND SOUTH CENTRAL SOUTH DAKOTA

CITY           SKY/WX    TMP DP  RH WIND       PRES   REMARKS
RAPID CTY ARPT CLOUDY    53  51  93 CALM      30.00S
PIERRE         PTCLDY    57  55  93 SE14      29.90F
CUSTER         CLOUDY    50  46  86 W5        30.09F
ELLSWORTH AFB  CLOUDY    55  54  94 SE2       29.97
PHILIP         CLOUDY    57  52  83 W6        29.97R
PINE RIDGE     CLEAR     51  51 100 E5        30.02F
WINNER         FAIR      60  57  89 S8        29.99R
$$

SDZ004>011-016>023-039-040-271200-
NORTHEAST SOUTH DAKOTA

CITY           SKY/WX    TMP DP  RH WIND       PRES   REMARKS
ABERDEEN       CLOUDY    59  57  93 S9        29.97F
WATERTOWN      CLOUDY    60  58  92 SE6       30.02S
BROOKINGS      LGT RAIN  59  57  93 SE8       30.02R
SISSETON         N/A     59  58  96 SE9       29.98F
$$

SDZ017-020-022-023-036>040-048>070-271200-
SOUTHEAST SOUTH DAKOTA

CITY           SKY/WX    TMP DP  RH WIND       PRES   REMARKS
SIOUX FALLS    LGT RAIN  61  60  97 N5        30.01S FOG
HURON          CLEAR     57  56  96 S6        30.00R
CHAMBERLAIN    CLEAR     55  55 100 CALM      29.98F
MITCHELL       CLOUDY    63  62  97 S7        30.01S
YANKTON        CLOUDY    63  59  88 E3        29.99S
$$

ABBREVIATIONS USED IN REMARKS
   TC - TEMPERATURE IN CELSIUS
  WCI - WIND CHILL INDEX
   HX - HEAT INDEX
  VSB - VISIBILITY





USA.gov is the U.S. government's official web portal to all federal, state and local government web resources and services.